"Date","subscriberCount","subscriberChange","viewCount","viewChange","videoCount","videoChange","commentCount","commentChange"
"2020-10-15 00:02:04","376000","0","292348543","0","961","0","0","0"
"2020-10-16 00:02:04","377000","1000","292759679","411136","962","1","0","0"
"2020-10-17 00:02:03","377000","0","293102034","342355","963","1","0","0"
"2020-10-18 00:02:04","377000","0","293692680","590646","964","1","0","0"
"2020-10-19 00:02:04","378000","1000","294334170","641490","965","1","0","0"
"2020-10-20 00:02:04","378000","0","294717737","383567","966","1","0","0"
"2020-10-21 00:02:03","378000","0","295118148","400411","967","1","0","0"
"2020-10-22 00:02:03","378000","0","295462138","343990","968","1","0","0"
"2020-10-23 00:02:04","379000","1000","295838211","376073","969","1","0","0"
"2020-10-24 00:02:04","379000","0","296164289","326078","970","1","0","0"
"2020-10-25 00:02:04","379000","0","296535202","370913","971","1","0","0"
"2020-10-27 00:02:04","380000","1000","297735989","1200787","973","2","0","0"
"2020-10-28 00:02:03","380000","0","298048001","312012","974","1","0","0"
"2020-10-29 00:02:03","380000","0","298386328","338327","974","0","0","0"
"2020-10-30 00:02:02","380000","0","298667597","281269","974","0","","0"
"2020-10-31 00:02:03","380000","0","298885823","218226","975","1","0","0"
"2020-11-01 00:02:03","381000","1000","299222063","336240","976","1","","0"
"2020-11-02 00:02:02","381000","0","299734815","512752","976","0","0","0"
"2020-11-03 00:02:03","381000","0","300105877","371062","978","2","0","0"
"2020-11-04 00:02:03","381000","0","300635609","529732","978","0","0","0"
"2020-11-05 00:02:05","381000","0","300807644","172035","979","1","0","0"
"2020-11-06 00:02:03","382000","1000","301266164","458520","980","1","0","0"
"2020-11-07 00:02:04","382000","0","301582678","316514","981","1","0","0"
"2020-11-08 00:02:04","382000","0","302435502","852824","982","1","0","0"
"2020-11-09 00:02:06","383000","1000","303155321","719819","983","1","0","0"
"2020-11-10 00:02:04","383000","0","303662496","507175","983","0","0","0"
"2020-11-11 00:02:04","384000","1000","304016690","354194","984","1","0","0"
"2020-11-12 00:02:03","384000","0","304404033","387343","985","1","","0"
"2020-11-13 00:02:03","384000","0","304793788","389755","986","1","","0"
"2020-11-14 00:02:02","384000","0","305262823","469035","987","1","","0"
"2020-11-15 00:02:02","385000","1000","306040387","777564","988","1","","0"
"2020-11-16 00:02:03","385000","0","306711533","671146","989","1","","0"
"2020-11-17 00:02:02","385000","0","307072411","360878","990","1","","0"
"2020-11-18 00:02:03","386000","1000","307546329","473918","991","1","","0"
"2020-11-19 00:02:02","386000","0","307954806","408477","992","1","","0"
"2020-11-20 00:02:03","386000","0","308339715","384909","992","0","","0"
"2020-11-21 00:02:02","386000","0","308726497","386782","993","1","","0"
"2020-11-22 00:02:02","387000","1000","309539292","812795","994","1","","0"
"2020-11-23 00:02:03","388000","1000","310482246","942954","995","1","","0"
"2020-11-24 00:02:02","389000","1000","311285306","803060","995","0","","0"
"2020-11-25 00:02:02","389000","0","311704308","419002","996","1","","0"
"2020-11-26 00:02:03","389000","0","312216007","511699","997","1","","0"
"2020-11-27 00:02:03","390000","1000","312629672","413665","997","0","","0"
"2020-11-28 00:02:02","390000","0","313019734","390062","998","1","","0"
"2020-11-29 00:02:02","390000","0","313634814","615080","998","0","","0"
"2020-11-30 00:02:03","391000","1000","314339104","704290","999","1","","0"
"2020-12-01 00:02:02","391000","0","314776944","437840","1000","1","","0"
"2020-12-02 00:02:03","391000","0","315144897","367953","1001","1","","0"
"2020-12-03 00:02:02","392000","1000","315587113","442216","1002","1","","0"
"2020-12-04 00:02:02","392000","0","316125026","537913","1003","1","","0"
"2020-12-05 00:02:05","392000","0","316499758","374732","1004","1","","0"
"2020-12-06 00:02:03","393000","1000","317190124","690366","1005","1","","0"
"2020-12-07 00:02:02","393000","0","317912413","722289","1006","1","","0"
"2020-12-08 00:02:03","394000","1000","318307365","394952","1007","1","","0"
"2020-12-09 00:02:03","394000","0","318779291","471926","1008","1","","0"
"2020-12-10 00:02:03","395000","1000","319178757","399466","1009","1","","0"
"2020-12-11 00:02:03","395000","0","319556823","378066","1010","1","","0"
"2020-12-12 00:02:03","395000","0","319983525","426702","1011","1","","0"
"2020-12-13 00:02:03","395000","0","320831217","847692","1012","1","","0"
"2020-12-14 00:02:04","396000","1000","321561252","730035","1013","1","","0"
"2020-12-15 00:02:04","396000","0","321958706","397454","1014","1","","0"
"2020-12-16 00:02:03","396000","0","322322071","363365","1015","1","","0"
"2020-12-17 00:02:04","397000","1000","322669391","347320","1016","1","","0"
"2020-12-18 00:02:03","397000","0","323039049","369658","1017","1","","0"
"2020-12-19 00:02:04","397000","0","323369857","330808","1018","1","","0"
"2020-12-20 00:02:03","397000","0","324053635","683778","1019","1","","0"
"2020-12-21 00:02:04","398000","1000","324812689","759054","1020","1","","0"
"2020-12-22 00:02:03","398000","0","325150842","338153","1021","1","","0"
"2020-12-23 00:02:02","398000","0","325573576","422734","1022","1","","0"
"2020-12-24 00:02:04","398000","0","326035134","461558","1024","2","","0"
"2020-12-25 00:02:03","399000","1000","326580186","545052","1025","1","","0"
"2020-12-26 00:02:03","399000","0","327222599","642413","1026","1","","0"
"2020-12-27 00:02:03","399000","0","327779893","557294","1027","1","","0"
"2020-12-28 00:02:04","400000","1000","328366169","586276","1027","0","","0"
"2020-12-29 00:02:03","400000","0","328954325","588156","1028","1","","0"
"2020-12-30 00:02:03","401000","1000","329654510","700185","1029","1","","0"
"2020-12-31 00:02:02","401000","0","330466801","812291","1030","1","","0"
"2021-01-01 00:02:03","402000","1000","331165444","698643","1031","1","","0"
"2021-01-02 00:02:04","403000","1000","331951385","785941","1033","2","","0"
"2021-01-03 00:02:04","403000","0","332687289","735904","1034","1","","0"
"2021-01-04 00:02:04","404000","1000","333351318","664029","1035","1","","0"
"2021-01-05 00:02:05","404000","0","333973763","622445","1036","1","","0"
"2021-01-06 00:02:03","405000","1000","334647311","673548","1037","1","","0"
"2021-01-07 00:02:02","405000","0","335270054","622743","1038","1","","0"
"2021-01-08 00:02:02","405000","0","335940367","670313","1039","1","","0"
"2021-01-09 00:02:02","406000","1000","336550651","610284","1040","1","","0"
"2021-01-10 00:02:02","406000","0","337414745","864094","1041","1","","0"
"2021-01-11 00:02:02","407000","1000","338194321","779576","1042","1","","0"
"2021-01-12 00:02:03","408000","1000","339103850","909529","1043","1","","0"
"2021-01-13 00:02:02","408000","0","339568729","464879","1044","1","","0"
"2021-01-14 00:02:02","408000","0","340100865","532136","1045","1","","0"
"2021-01-15 00:02:03","408000","0","340549049","448184","1046","1","","0"
"2021-01-16 00:02:02","409000","1000","341018922","469873","1047","1","","0"
"2021-01-17 00:02:02","409000","0","341759098","740176","1048","1","","0"
"2021-01-18 00:02:03","410000","1000","342725808","966710","1049","1","","0"
"2021-01-19 00:02:02","410000","0","343285772","559964","1050","1","","0"
"2021-01-20 00:02:02","410000","0","343814376","528604","1051","1","","0"
"2021-01-21 00:02:02","411000","1000","344300368","485992","1052","1","","0"
"2021-01-22 00:02:02","411000","0","344797450","497082","1053","1","","0"
"2021-01-23 00:02:03","411000","0","345414336","616886","1054","1","","0"
"2021-01-24 00:02:02","411000","0","346263095","848759","1055","1","","0"
"2021-01-25 00:02:02","412000","1000","347254630","991535","1056","1","","0"
"2021-01-26 00:02:02","412000","0","347704547","449917","1057","1","","0"
"2021-01-27 00:02:03","412000","0","348278769","574222","1058","1","","0"
"2021-01-28 00:02:02","413000","1000","348870253","591484","1059","1","","0"
"2021-01-29 00:02:03","413000","0","349369899","499646","1059","0","","0"
"2021-01-30 00:02:02","413000","0","349880889","510990","1060","1","","0"
"2021-01-31 00:02:02","414000","1000","350884107","1003218","1061","1","","0"
"2021-02-01 00:02:03","415000","1000","351854241","970134","1062","1","","0"
"2021-02-02 00:02:02","415000","0","352495031","640790","1063","1","","0"
"2021-02-03 00:02:03","415000","0","353001284","506253","1063","0","","0"
"2021-02-04 00:02:03","416000","1000","353450116","448832","1064","1","","0"
"2021-02-05 00:02:03","416000","0","353904634","454518","1065","1","","0"
"2021-02-06 00:02:03","416000","0","354359142","454508","1065","0","","0"
"2021-02-07 00:02:02","416000","0","355029587","670445","1066","1","","0"
"2021-02-08 00:02:03","417000","1000","355840799","811212","1067","1","","0"
"2021-02-09 00:02:02","417000","0","356318165","477366","1068","1","","0"
"2021-02-10 00:02:03","417000","0","356849004","530839","1069","1","","0"
"2021-02-11 00:02:02","418000","1000","357225706","376702","1070","1","","0"
"2021-02-12 00:02:02","418000","0","358161287","935581","1071","1","","0"
"2021-02-13 00:02:02","419000","1000","358562260","400973","1072","1","","0"
"2021-02-14 00:02:03","419000","0","359252157","689897","1073","1","","0"
"2021-02-15 00:02:02","419000","0","359773691","521534","1074","1","","0"
"2021-02-16 00:02:02","420000","1000","360261659","487968","1075","1","","0"
"2021-02-17 00:02:02","420000","0","360644872","383213","1075","0","","0"
"2021-02-18 00:02:02","420000","0","361044954","400082","1076","1","","0"
"2021-02-19 00:02:02","420000","0","361515590","470636","1077","1","","0"
"2021-02-20 00:02:03","420000","0","361898926","383336","1077","0","","0"
"2021-02-21 00:02:02","421000","1000","362539403","640477","1078","1","","0"
"2021-02-22 00:02:03","421000","0","363236694","697291","1079","1","","0"
"2021-02-23 00:02:02","421000","0","363710747","474053","1080","1","","0"
"2021-02-24 00:02:02","422000","1000","364503460","792713","1081","1","","0"
"2021-02-25 00:02:02","422000","0","364870452","366992","1080","-1","","0"
"2021-02-26 00:02:02","422000","0","365283995","413543","1081","1","","0"
"2021-02-27 00:02:02","422000","0","365693171","409176","1082","1","","0"
"2021-02-28 00:02:02","422000","0","366489207","796036","1083","1","","0"
"2021-03-01 00:02:02","423000","1000","367361092","871885","1084","1","","0"
"2021-03-02 00:02:03","423000","0","367884980","523888","1085","1","","0"
"2021-03-03 00:02:02","423000","0","368325188","440208","1085","0","","0"
"2021-03-04 00:02:02","424000","1000","368775434","450246","1086","1","","0"
"2021-03-05 00:02:02","424000","0","368848406","72972","1087","1","","0"
"2021-03-06 00:02:02","424000","0","369410311","561905","1087","0","","0"
"2021-03-07 00:02:03","424000","0","369898221","487910","1087","0","","0"
"2021-03-08 00:02:02","425000","1000","370575982","677761","1089","2","","0"
"2021-03-09 00:02:02","425000","0","371451438","875456","1090","1","","0"
"2021-03-10 00:02:02","426000","1000","372025398","573960","1091","1","","0"
"2021-03-11 00:02:02","426000","0","372516494","491096","1092","1","","0"
"2021-03-12 00:02:02","427000","1000","373136661","620167","1093","1","","0"
"2021-03-13 00:02:02","427000","0","373822268","685607","1093","0","","0"
"2021-03-14 00:02:03","428000","1000","374455648","633380","1094","1","","0"
"2021-03-15 00:02:02","429000","1000","375554351","1098703","1095","1","","0"
"2021-03-16 00:02:01","430000","1000","376545846","991495","1096","1","","0"
"2021-03-17 00:02:02","430000","0","377158812","612966","1096","0","","0"
"2021-03-18 00:02:02","431000","1000","377719598","560786","1097","1","","0"
"2021-03-19 00:02:02","431000","0","378374455","654857","1098","1","","0"
"2021-03-20 00:02:02","431000","0","379022667","648212","1098","0","","0"
"2021-03-21 00:02:02","432000","1000","379701922","679255","1099","1","","0"
"2021-03-22 00:02:02","433000","1000","380427272","725350","1100","1","","0"
"2021-03-23 00:02:03","433000","0","381217872","790600","1101","1","","0"
"2021-03-24 00:02:02","433000","0","381723528","505656","1102","1","","0"
"2021-03-25 00:02:02","434000","1000","382317725","594197","1102","0","","0"
"2021-03-26 00:02:02","434000","0","382830343","512618","1102","0","","0"
"2021-03-27 00:02:02","434000","0","383352191","521848","1103","1","","0"
"2021-03-28 00:02:03","435000","1000","383980973","628782","1104","1","","0"
"2021-03-29 00:02:02","435000","0","384621372","640399","1105","1","","0"
"2021-03-30 00:02:02","436000","1000","385208645","587273","1105","0","","0"
"2021-03-31 00:02:02","436000","0","385786774","578129","1106","1","","0"
"2021-04-01 00:02:02","436000","0","386389724","602950","1107","1","","0"
"2021-04-02 00:02:02","436000","0","387013178","623454","1108","1","","0"
"2021-04-03 00:02:02","437000","1000","387604966","591788","1109","1","","0"
"2021-04-04 00:02:02","437000","0","388218365","613399","1110","1","","0"
"2021-04-05 00:02:02","438000","1000","388864355","645990","1111","1","","0"
"2021-04-06 00:02:02","438000","0","389519748","655393","1111","0","","0"
"2021-04-07 00:02:02","439000","1000","390452114","932366","1112","1","","0"
"2021-04-08 00:02:03","439000","0","391139233","687119","1113","1","","0"
"2021-04-09 00:02:02","439000","0","391862850","723617","1113","0","","0"
"2021-04-10 00:02:02","439000","0","392473941","611091","1114","1","","0"
"2021-04-11 00:02:03","440000","1000","393118843","644902","1115","1","","0"
"2021-04-12 00:02:02","440000","0","393922234","803391","1116","1","","0"
"2021-04-13 00:02:03","440000","0","394609853","687619","1118","2","","0"
"2021-04-14 00:02:03","440000","0","395354716","744863","1119","1","","0"
"2021-04-15 00:02:03","441000","1000","395882148","527432","1119","0","","0"
"2021-04-16 00:02:03","441000","0","396299777","417629","1119","0","","0"
"2021-04-17 00:02:03","441000","0","396767920","468143","1120","1","","0"
"2021-04-18 00:02:03","442000","1000","397203103","435183","1120","0","","0"
"2021-04-19 00:02:03","442000","0","397924644","721541","1121","1","","0"
"2021-04-20 00:02:03","442000","0","398591237","666593","1121","0","","0"
"2021-04-21 00:02:02","443000","1000","398966510","375273","1122","1","","0"
"2021-04-22 00:02:02","443000","0","399340540","374030","1123","1","","0"
"2021-04-23 00:02:03","443000","0","399778031","437491","1124","1","","0"
"2021-04-24 00:02:03","443000","0","400187319","409288","1124","0","","0"
"2021-04-25 00:02:03","443000","0","400536870","349551","1125","1","","0"
"2021-04-26 00:02:04","444000","1000","401074918","538048","1126","1","","0"
"2021-04-27 00:02:02","444000","0","401552015","477097","1127","1","","0"
"2021-04-28 00:02:02","444000","0","401994727","442712","1128","1","","0"
"2021-04-29 00:02:03","444000","0","402341081","346354","1130","2","","0"
"2021-04-30 00:02:02","445000","1000","402800408","459327","1131","1","","0"
"2021-05-01 00:02:04","445000","0","403580929","780521","1131","0","","0"
"2021-05-02 00:02:02","446000","1000","403992214","411285","1131","0","","0"
"2021-05-03 00:02:04","446000","0","404545004","552790","1132","1","","0"
"2021-05-04 00:02:03","447000","1000","405143597","598593","1133","1","","0"
"2021-05-05 00:02:03","447000","0","405989731","846134","1134","1","","0"
"2021-05-06 00:02:03","448000","1000","406815731","826000","1135","1","","0"
"2021-05-07 00:02:03","449000","1000","407734778","919047","1135","0","","0"
"2021-05-08 00:02:03","449000","0","408216866","482088","1136","1","","0"
"2021-05-09 00:02:02","450000","1000","408825892","609026","1137","1","","0"
"2021-05-10 00:02:04","451000","1000","409761330","935438","1138","1","","0"
"2021-05-11 00:02:03","451000","0","410774362","1013032","1138","0","","0"
"2021-05-12 00:02:03","451000","0","411287286","512924","1138","0","","0"
"2021-05-13 00:02:03","451000","0","411711725","424439","1138","0","","0"
"2021-05-14 00:02:03","452000","1000","412145138","433413","1138","0","","0"
"2021-05-15 00:02:03","452000","0","412528602","383464","1139","1","","0"
"2021-05-16 00:02:04","452000","0","412989628","461026","864","-275","","0"
"2021-05-17 00:02:03","453000","1000","413797328","807700","864","0","","0"
"2021-05-18 00:02:04","453000","0","414668405","871077","865","1","","0"
"2021-05-19 00:02:02","453000","0","395399606","-19268799","865","0","","0"
"2021-05-20 00:02:02","454000","1000","395856376","456770","866","1","","0"
"2021-05-21 00:02:03","454000","0","396377110","520734","866","0","","0"
"2021-05-22 00:02:03","454000","0","396822632","445522","866","0","","0"
"2021-05-23 00:02:04","454000","0","397271244","448612","866","0","","0"
"2021-05-24 00:02:03","455000","1000","397887940","616696","866","0","","0"
"2021-05-25 00:02:03","455000","0","398293695","405755","867","1","","0"
"2021-05-26 00:02:02","455000","0","398822721","529026","867","0","","0"
"2021-05-27 00:02:03","455000","0","399130890","308169","869","2","","0"
"2021-05-28 00:02:03","455000","0","399574740","443850","869","0","","0"
"2021-05-29 00:02:03","455000","0","399949554","374814","870","1","","0"
"2021-05-30 00:02:04","456000","1000","400337352","387798","871","1","","0"
"2021-05-31 00:02:03","456000","0","401009834","672482","872","1","","0"
"2021-06-01 00:02:03","457000","1000","401610632","600798","874","2","","0"
"2021-06-02 00:02:02","457000","0","402300415","689783","875","1","","0"
"2021-06-03 00:02:03","457000","0","402735354","434939","876","1","","0"
"2021-06-04 00:02:03","457000","0","403166775","431421","877","1","","0"
"2021-06-05 00:02:02","457000","0","403618513","451738","878","1","","0"
"2021-06-06 00:02:03","458000","1000","404143595","525082","879","1","","0"
"2021-06-07 00:02:02","458000","0","404819531","675936","880","1","","0"
"2021-06-08 00:02:03","459000","1000","405521763","702232","882","2","","0"
"2021-06-09 00:02:02","459000","0","406034899","513136","883","1","","0"
"2021-06-10 00:02:02","459000","0","406501148","466249","884","1","","0"
"2021-06-11 00:02:03","459000","0","406874040","372892","885","1","","0"
"2021-06-12 00:02:03","459000","0","407311590","437550","886","1","","0"
"2021-06-13 00:02:03","460000","1000","407702752","391162","887","1","","0"
"2021-06-14 00:02:02","460000","0","408474254","771502","888","1","","0"
"2021-06-15 00:02:03","460000","0","409126986","652732","889","1","","0"
"2021-06-16 00:02:03","460000","0","409575259","448273","885","-4","","0"
"2021-06-17 00:02:02","461000","1000","410023225","447966","890","5","","0"
"2021-06-18 00:02:02","461000","0","410471320","448095","891","1","","0"
"2021-06-19 00:02:03","461000","0","410872023","400703","891","0","","0"
"2021-06-20 00:02:03","462000","1000","411204160","332137","892","1","","0"
"2021-06-21 00:02:03","462000","0","411872106","667946","893","1","","0"
"2021-06-22 00:02:03","462000","0","412539343","667237","894","1","","0"
"2021-06-23 00:02:03","462000","0","412951365","412022","895","1","","0"
"2021-06-24 00:02:03","462000","0","413346477","395112","895","0","","0"
"2021-06-25 00:02:03","463000","1000","413690755","344278","896","1","","0"
"2021-06-26 00:02:03","463000","0","414028899","338144","897","1","","0"
"2021-06-27 00:02:03","463000","0","414466918","438019","898","1","","0"
"2021-06-28 00:02:03","464000","1000","414964419","497501","899","1","","0"
"2021-06-29 00:02:03","464000","0","415913049","948630","900","1","","0"
"2021-06-30 00:02:02","464000","0","416121416","208367","901","1","","0"
"2021-07-01 00:02:03","464000","0","416498813","377397","902","1","","0"
"2021-07-02 00:02:03","464000","0","416546595","47782","903","1","","0"
"2021-07-03 00:02:04","464000","0","416897674","351079","903","0","","0"
"2021-07-04 00:02:03","464000","0","417191891","294217","904","1","","0"
"2021-07-05 00:02:03","464000","0","417599874","407983","905","1","","0"
"2021-07-06 00:02:04","465000","1000","417759111","159237","906","1","","0"
"2021-07-07 00:02:03","465000","0","418287831","528720","906","0","","0"
"2021-07-08 00:02:04","465000","0","418557132","269301","907","1","","0"
"2021-07-09 00:02:04","465000","0","418852123","294991","908","1","","0"
"2021-07-10 00:02:03","465000","0","419223501","371378","909","1","","0"
"2021-07-11 00:02:03","466000","1000","419596141","372640","910","1","","0"
"2021-07-12 00:02:02","466000","0","420218163","622022","910","0","","0"
"2021-07-13 00:02:02","466000","0","420734923","516760","911","1","","0"
"2021-07-14 00:02:03","466000","0","421158395","423472","912","1","","0"
"2021-07-15 00:02:03","466000","0","421567964","409569","912","0","","0"
"2021-07-16 00:02:03","467000","1000","421948808","380844","913","1","","0"
"2021-07-17 00:02:02","467000","0","422358417","409609","913","0","","0"
"2021-07-18 00:02:02","467000","0","422776631","418214","914","1","","0"
"2021-07-19 00:02:03","467000","0","423397822","621191","914","0","","0"
"2021-07-20 00:02:03","468000","1000","423977765","579943","915","1","","0"
"2021-07-21 00:02:02","468000","0","424341614","363849","916","1","","0"
"2021-07-22 00:02:02","468000","0","424815826","474212","917","1","","0"
"2021-07-23 00:02:03","469000","1000","425460437","644611","918","1","","0"
"2021-07-24 00:02:02","469000","0","426165997","705560","919","1","","0"
"2021-07-25 00:02:03","470000","1000","426939410","773413","920","1","","0"
"2021-07-26 00:02:02","470000","0","427597122","657712","921","1","","0"
"2021-07-27 00:02:02","470000","0","428314815","717693","921","0","","0"
"2021-07-28 00:02:03","471000","1000","429094831","780016","923","2","","0"
"2021-07-29 00:02:02","471000","0","429832532","737701","923","0","","0"
"2021-07-30 00:02:02","471000","0","430604068","771536","924","1","","0"
"2021-07-31 00:02:03","472000","1000","431271403","667335","925","1","","0"
"2021-08-01 00:02:02","472000","0","432016846","745443","926","1","","0"
"2021-08-02 00:02:02","472000","0","432581965","565119","927","1","","0"
"2021-08-03 00:02:02","473000","1000","433204580","622615","929","2","","0"
"2021-08-04 00:02:03","473000","0","433914071","709491","930","1","","0"
"2021-08-05 00:02:02","474000","1000","434754284","840213","932","2","","0"
"2021-08-06 00:02:02","474000","0","435614061","859777","933","1","","0"
"2021-08-07 00:02:02","475000","1000","436304363","690302","935","2","","0"
"2021-08-08 00:02:03","475000","0","437305422","1001059","935","0","","0"
"2021-08-09 00:02:02","476000","1000","438130776","825354","936","1","","0"
"2021-08-10 00:02:03","476000","0","438777827","647051","937","1","","0"
"2021-08-11 00:02:03","476000","0","438777827","0","939","2","","0"
"2021-08-12 00:02:02","477000","1000","440314270","1536443","940","1","","0"
"2021-08-13 00:02:02","477000","0","441168017","853747","940","0","","0"
"2021-08-14 00:02:03","478000","1000","441923897","755880","942","2","","0"
"2021-08-15 00:02:03","478000","0","442596972","673075","944","2","","0"
"2021-08-16 00:02:03","478000","0","443376981","780009","945","1","","0"
"2021-08-17 00:02:03","479000","1000","443789733","412752","946","1","","0"
"2021-08-18 00:02:02","479000","0","444837726","1047993","947","1","","0"
"2021-08-19 00:02:02","480000","1000","445691154","853428","948","1","","0"
"2021-08-20 00:02:02","480000","0","446570775","879621","949","1","","0"
"2021-08-21 00:02:02","481000","1000","447426322","855547","951","2","","0"
"2021-08-22 00:02:07","481000","0","448314438","888116","951","0","","0"
"2021-08-23 00:02:02","481000","0","449107004","792566","952","1","","0"
"2021-08-24 00:02:03","482000","1000","449874620","767616","953","1","","0"
"2021-08-25 00:02:02","482000","0","450750509","875889","954","1","","0"
"2021-08-26 00:02:03","483000","1000","451551268","800759","954","0","","0"
"2021-08-27 00:02:02","483000","0","452313904","762636","955","1","","0"
"2021-08-28 00:02:02","483000","0","452989934","676030","956","1","","0"
"2021-08-29 00:02:02","483000","0","453650258","660324","958","2","","0"
"2021-08-30 00:02:03","484000","1000","454407043","756785","959","1","","0"